DateTimeUTC,F1_A11,F1_S11,BsB_S11,BsG_S11,BsR_S11,BbsB_S11,BbsG_S11,BbsR_S11,BaB_A11,BaG_A11,BaR_A11,Tu_S11,T_S11,Uu_S11,U_S11,P_S11,T1_A11
2021-07-21T04:00:00Z,00000200,20000000,,,,,,,-000.70,-000.30,-000.15,18.4,25.2,06.7,04.4,0668.9,31.1
2021-07-21T04:01:00Z,00000200,20000000,,,,,,,0000.42,0000.01,0000.02,18.4,25.2,06.6,04.3,0668.9,31.1
2021-07-21T04:02:00Z,00000200,20000000,,,,,,,-000.21,-000.05,-000.38,18.4,25.2,06.5,04.3,0668.9,31.1
2021-07-21T04:03:00Z,00000200,60000000,,,,,,,0000.27,0000.16,0000.19,18.4,25.2,06.5,04.3,0668.9,31.1
2021-07-21T04:04:00Z,00000200,40000000,0001.61,0000.53,0000.64,-000.27,-000.06,0000.00,-000.14,0000.10,0000.13,18.6,25.1,06.4,04.3,0669.9,31.1
2021-07-21T04:05:00Z,00000200,00000000,0001.19,0000.98,0000.55,-000.10,-000.08,0000.18,-000.05,-000.31,-000.40,18.7,25.1,06.5,04.4,0669.9,31.1
2021-07-21T04:06:00Z,00000200,00000000,0000.80,0000.63,0000.62,0000.17,0000.26,0000.21,-000.12,0000.04,0000.44,18.7,25.0,06.4,04.3,0669.9,31.1
2021-07-21T04:07:00Z,00000200,00000000,0001.33,0001.26,0000.23,0000.15,0000.05,-000.00,0000.35,-000.05,0000.30,18.6,25.0,06.4,04.4,0669.9,31.1
2021-07-21T04:08:00Z,00000200,00000000,0001.92,0000.76,0000.57,-000.36,-000.11,0000.41,-000.02,0000.21,-000.10,18.6,25.0,06.5,04.4,0669.9,31.1
2021-07-21T04:09:00Z,00000200,00000000,0001.40,0000.44,0000.58,0000.84,0000.25,0000.11,0000.15,0000.08,0000.12,18.6,25.0,06.6,04.5,0670.0,31.0
2021-07-21T04:10:00Z,00000200,00000000,0001.63,0000.88,0000.68,-000.52,-000.11,0000.45,-000.17,0000.24,0000.17,18.6,25.0,06.5,04.4,0670.0,31.1
2021-07-21T04:11:00Z,00000200,00000000,0001.55,0000.86,0000.53,-000.22,0000.38,0000.14,0000.12,-000.26,-000.33,18.6,25.0,06.6,04.5,0670.0,31.1
2021-07-21T04:12:00Z,00000200,00000000,0001.95,0001.20,0000.58,0000.66,0000.11,0000.25,-000.37,0000.23,0000.11,18.6,25.0,06.6,04.4,0669.9,31.1
2021-07-21T04:13:00Z,00000200,00000000,0001.24,0000.89,0000.92,0000.00,0000.12,0000.26,0000.34,0000.11,0000.32,18.6,25.0,06.6,04.5,0670.0,31.1
2021-07-21T04:14:00Z,00000200,00000000,0000.87,0000.75,0000.47,-000.09,0000.21,0000.32,0000.02,-000.10,0000.09,18.6,25.0,06.7,04.6,0670.0,31.1
2021-07-21T04:15:00Z,00000200,00000000,0001.11,0000.99,0000.71,0000.18,0000.38,0000.19,0000.10,0000.23,0000.05,18.6,25.0,06.7,04.6,0670.0,31.1
2021-07-21T04:16:00Z,00000200,00000000,0001.58,0000.65,0000.68,0000.65,0000.04,0000.21,0000.06,-000.12,0000.03,18.7,25.0,06.7,04.5,0670.0,31.1
2021-07-21T04:17:00Z,00000200,00000000,0001.93,0000.96,0000.07,-000.28,-000.02,-000.09,-000.04,0000.22,0000.06,18.7,25.0,06.6,04.5,0670.0,31.1
2021-07-21T04:18:00Z,00000200,00000000,0002.67,0001.14,0000.71,-000.36,-000.11,0000.21,0000.34,-000.32,0000.14,18.7,25.0,06.6,04.5,0670.0,31.1
2021-07-21T04:19:00Z,00000200,00000000,0001.82,0000.83,0000.81,-000.47,0000.04,0000.26,-000.23,0000.15,0000.01,18.7,25.0,06.6,04.5,0670.0,31.1
2021-07-21T04:20:00Z,00000200,00000000,0000.55,0001.42,0000.79,-000.35,0000.31,-000.06,0000.18,-000.10,-000.14,18.7,25.0,06.6,04.5,0669.9,31.1
2021-07-21T04:21:00Z,00000200,00000000,0001.28,0001.20,0000.85,0000.31,0000.03,0000.02,-000.00,0000.31,0000.30,18.7,25.0,06.7,04.6,0669.9,31.1
2021-07-21T04:22:00Z,00000200,00000000,0002.04,0000.99,0000.47,-000.05,0000.33,0000.43,0000.07,-000.06,-000.06,18.7,25.0,06.7,04.5,0669.9,31.1
2021-07-21T04:23:00Z,00000200,00000000,0001.68,0001.26,0000.55,-000.37,-000.22,-000.05,0000.01,-000.00,-000.01,18.7,25.0,06.7,04.5,0669.9,31.1
2021-07-21T04:24:00Z,00000200,00000000,0001.42,0000.84,0000.63,-000.05,0000.14,0000.07,-000.20,0000.37,0000.25,18.7,25.0,06.7,04.6,0669.8,31.1
2021-07-21T04:25:00Z,00000200,00000000,0000.84,0000.98,0000.76,0000.18,0000.08,0000.39,0000.28,-000.12,0000.07,18.7,25.0,06.7,04.6,0669.8,31.1
2021-07-21T04:26:00Z,00000200,00000000,0001.30,0000.71,0000.64,-000.02,0000.11,0000.13,0000.28,0000.29,0000.21,18.7,25.0,06.8,04.6,0669.8,31.1
2021-07-21T04:27:00Z,00000200,00000000,0001.40,0000.81,0000.76,0000.01,0000.02,0000.19,-000.16,-000.29,0000.21,18.6,25.0,06.8,04.6,0669.8,31.1
2021-07-21T04:28:00Z,00000200,00000000,0000.57,0000.71,0000.47,0000.59,-000.09,0000.07,-000.20,0000.09,-000.09,18.6,25.0,06.7,04.6,0669.8,31.1
2021-07-21T04:29:00Z,00000200,00000000,0001.45,0000.58,0000.49,0000.15,0000.19,0000.08,-000.30,-000.30,0000.07,18.6,25.0,06.8,04.6,0669.9,31.1
2021-07-21T04:30:00Z,00000200,00000000,0000.85,0000.89,0000.13,-000.06,0000.20,0000.06,0000.77,0000.29,-000.06,18.6,25.0,06.9,04.6,0669.9,31.1
2021-07-21T04:31:00Z,00000200,00000000,0001.24,0000.81,0000.83,-000.16,0000.06,0000.29,-000.28,0000.01,0000.00,18.6,24.9,06.9,04.7,0669.9,31.1
2021-07-21T04:32:00Z,00000200,00000000,0001.14,0000.92,0000.42,0000.04,-000.17,0000.10,0000.13,0000.20,-000.13,18.6,24.9,06.9,04.7,0669.9,31.1
2021-07-21T04:33:00Z,00000200,00000000,0000.50,0001.14,0000.82,-000.46,0000.18,0000.31,0000.11,-000.05,0000.36,18.6,24.9,06.9,04.7,0669.9,31.1
2021-07-21T04:34:00Z,00000200,00000000,0001.32,0001.06,0000.50,-000.57,0000.12,0000.31,0000.18,0000.06,-000.14,18.6,24.9,06.9,04.7,0669.8,31.1
2021-07-21T04:35:00Z,00000200,00000000,0000.58,0001.01,0000.79,-000.04,0000.24,0000.26,-000.10,-000.02,0000.20,18.5,24.9,07.0,04.7,0669.9,31.0
2021-07-21T04:36:00Z,00000200,00000000,0002.37,0001.41,0000.65,0000.46,-000.10,-000.21,-000.23,0000.12,0000.14,18.5,24.9,07.0,04.7,0669.9,31.1
2021-07-21T04:37:00Z,00000200,00000000,0001.66,0001.16,0000.75,-000.11,0000.12,0000.22,0000.10,0000.19,-000.11,18.5,24.9,06.9,04.7,0669.8,31.1
2021-07-21T04:38:00Z,00000200,00000000,0002.11,0001.14,0000.91,0000.57,0000.00,0000.37,-000.14,-000.42,0000.31,18.5,24.9,07.0,04.7,0669.9,31.1
2021-07-21T04:39:00Z,00000200,00000000,0002.32,0001.14,0001.05,0000.47,0000.24,0000.11,0000.52,0000.31,-000.16,18.5,24.9,07.0,04.7,0669.9,31.1
2021-07-21T04:40:00Z,00000200,00000000,0001.83,0001.28,0000.44,0000.11,0000.21,-000.02,-000.37,-000.20,-000.04,18.5,24.9,07.2,04.8,0669.9,31.1
2021-07-21T04:41:00Z,00000200,00000000,0001.37,0001.50,0001.21,0000.19,0000.19,0000.11,0000.07,0000.09,0000.13,18.5,24.9,07.1,04.8,0669.9,31.1
2021-07-21T04:42:00Z,00000200,00000000,0001.09,0001.30,0000.90,-000.26,-000.34,0000.04,0000.24,-000.04,0000.26,18.5,24.9,07.2,04.8,0669.9,31.1
2021-07-21T04:43:00Z,00000200,00000000,0001.40,0001.51,0000.88,0000.25,0000.30,0000.21,-000.20,0000.31,-000.15,18.5,24.9,07.0,04.8,0669.9,31.1
2021-07-21T04:44:00Z,00000200,00000000,0001.20,0001.30,0000.85,-000.46,0000.21,0000.20,0000.28,0000.22,0000.53,18.5,24.8,07.1,04.8,0669.9,31.1
2021-07-21T04:45:00Z,00000200,00000000,0001.83,0001.33,0000.95,0000.00,0000.11,0000.41,0000.07,0000.02,-000.11,18.5,24.8,07.1,04.8,0669.9,31.1
2021-07-21T04:46:00Z,00000200,00000000,0001.56,0001.37,0000.80,0000.18,0000.18,0000.09,0000.24,0000.30,0000.28,18.6,24.9,07.1,04.8,0669.9,31.1
2021-07-21T04:47:00Z,00000200,00000000,0002.00,0001.34,0000.67,0000.04,-000.01,-000.05,-000.40,-000.37,-000.29,18.7,25.0,06.8,04.7,0669.9,31.1
2021-07-21T04:48:00Z,00000200,00000000,0001.53,0001.34,0001.08,-000.07,-000.06,0000.28,0000.18,0000.24,0000.32,18.8,25.0,07.0,04.8,0669.9,31.1
2021-07-21T04:49:00Z,00000200,00000000,0000.95,0001.31,0000.99,0000.37,-000.10,0000.39,-000.01,-000.33,-000.20,18.8,25.1,06.9,04.7,0669.9,31.1
2021-07-21T04:50:00Z,00000200,00000000,0001.39,0001.05,0000.98,-000.01,-000.05,0000.34,-000.02,0000.38,0000.14,18.8,25.1,06.9,04.7,0669.9,31.1
2021-07-21T04:51:00Z,00000200,00000000,0002.47,0001.40,0000.85,0000.36,0000.05,0000.07,0000.17,-000.24,-000.24,18.8,25.1,06.9,04.7,0669.9,31.1
2021-07-21T04:52:00Z,00000200,00000000,0001.95,0001.25,0000.79,0000.12,0000.10,-000.06,-000.07,0000.11,0000.55,18.8,25.1,07.0,04.8,0669.9,31.1
2021-07-21T04:53:00Z,00000200,00000000,0001.62,0001.02,0000.77,-000.05,0000.08,0000.03,0000.16,0000.29,0000.18,18.8,25.1,06.9,04.7,0669.9,31.1
2021-07-21T04:54:00Z,00000200,00000000,0001.84,0001.11,0000.44,0000.19,-000.09,-000.37,-000.21,-000.36,-000.38,18.8,25.0,06.9,04.7,0669.9,31.1
2021-07-21T04:55:00Z,00000200,00000000,0001.05,0001.11,0000.68,0000.21,-000.16,-000.10,0000.18,0000.16,0000.41,18.8,25.0,06.9,04.7,0669.9,31.1
2021-07-21T04:56:00Z,00000200,00000000,0001.07,0001.08,0000.27,0000.44,-000.12,-000.28,-000.05,0000.08,-000.17,18.8,25.0,07.0,04.7,0669.9,31.1
2021-07-21T04:57:00Z,00000200,40000000,,,,,,,0000.00,-000.35,-000.14,18.8,25.1,06.8,04.6,0669.8,31.1
2021-07-21T04:58:00Z,00000200,60000000,,,,,,,-000.21,0000.18,0000.13,18.5,25.1,06.9,04.6,0668.9,31.1
2021-07-21T04:59:00Z,00000200,20000000,,,,,,,0000.09,0000.02,-000.32,18.5,25.2,06.9,04.6,0668.9,31.1
